sat.trackr.live / text

‹ back to catalog

STARLINK-2414

NORAD 48095 · 2021-027D

PAYLOAD ACTIVE UNKNOWN

§ Identity

Operator
Country
US
Launch date
2021-04-07
Launch site
AFETR
Launch vehicle
Mass (kg)
RCS (m²)

Purposes: comms

External: N2YO · Heavens-Above · Gunter

§ Orbital elements

Epoch: 2026-05-24T11:12:05.168736Z

Period
94.01 min
Inclination
53.1599°
Eccentricity
0.0001148
Mean motion
15.31708184 rev/d
Perigee alt
469.9 km
Apogee alt
471.5 km
Semi-major
6,848.9 km
B*
4.2102e-5
RAAN
173.0234°
Arg perigee
88.3615°
Mean anomaly
271.7518°
Rev number
28,413

§ Raw data

STARLINK-24141 48095U 21027D   26144.46672649  .00000942  00000+0  42102-4 0  99962 48095  53.1599 173.0234 0001148  88.3615 271.7518 15.31708184284132

JSON: /api/v1/satellites/48095 · /tle

For live sub-satellite position, see the globe view (requires WebGL).

§ Visibility from observer

Set your observer location to see the next 7 days of passes ≥ 10°. The values pass through the URL so the page stays shareable.

No JS? Fill the form by hand. The geolocation button needs JavaScript.